Location: Boneville
(33.4331°N, 82.4399°W)
Time: 09:41:22
(UTC+00:00)

ACS3 Solar Sail - Visible Passes

Search period start: 20 September 2024 00:00
Search period end: 30 September 2024 00:00
Orbit: 970 x 1036 km, 97.4° (Epoch: 19 September)

Date Brightness Start Highest point End Pass type
(mag) Time Alt. Az. Time Alt. Az. Time Alt. Az.
20 Sep 2.2 01:16:10 43° E 01:17:06 46° ENE 01:23:09 10° N visible
20 Sep 3.7 03:01:25 24° W 03:01:25 24° W 03:06:16 10° NW visible
21 Sep 3.6 00:04:52 10° E 00:06:50 12° ENE 00:08:48 10° NE visible
21 Sep 1.7 01:49:33 82° SE 01:49:51 86° ENE 01:56:18 10° N visible
21 Sep 4.5 03:34:47 11° W 03:34:47 11° W 03:36:16 10° WNW visible
22 Sep 3.0 00:37:38 21° E 00:39:10 23° ENE 00:43:59 10° NNE visible
22 Sep 2.6 02:22:53 50° W 02:22:53 50° W 02:28:55 10° NNW visible
23 Sep 2.2 01:10:55 42° E 01:11:39 43° ENE 01:17:38 10° N visible
23 Sep 3.6 02:56:09 25° W 02:56:09 25° W 03:00:53 10° NW visible
23 Sep 3.6 23:59:58 10° ENE 00:01:16 11° ENE 00:02:35 10° NE visible
24 Sep 1.7 01:44:09 82° E 01:44:14 82° ENE 01:50:39 10° N visible
24 Sep 4.4 03:29:23 12° W 03:29:23 12° W 03:31:09 10° WNW visible
25 Sep 3.0 00:32:06 20° E 00:33:26 22° ENE 00:38:05 10° NNE visible
25 Sep 2.5 02:17:20 52° W 02:17:20 52° W 02:23:11 10° NNW visible
26 Sep 2.3 01:05:15 40° E 01:05:45 40° ENE 01:11:39 10° N visible
26 Sep 3.6 02:50:28 27° W 02:50:28 27° W 02:55:04 10° NW visible
27 Sep 1.7 01:38:19 76° ENE 01:38:19 76° ENE 01:44:34 10° N visible
27 Sep 4.4 03:23:32 13° W 03:23:32 13° W 03:25:31 10° WNW visible
28 Sep 3.1 00:26:08 19° E 00:27:17 20° ENE 00:31:41 10° NNE visible
28 Sep 2.4 02:11:21 55° WNW 02:11:21 55° WNW 02:16:59 10° NNW visible
29 Sep 2.4 00:59:07 37° ENE 00:59:25 38° ENE 01:05:11 10° N visible
29 Sep 3.5 02:44:20 28° WNW 02:44:20 28° WNW 02:48:47 10° NW visible
